Radiation Dose measured at exhaust stack monitor of Fukushima Daiichi Nuclear Power Station
Date,Time,Unit 5 6 shared exhaust cylinders,Wind Direction,Wind Velocity(m/s)
2022/11/26,00:00,3.8,south,9.6
2022/11/26,00:10,3.8,south-southwest,9.1
2022/11/26,00:20,3.6,south,9.8
2022/11/26,00:30,3.7,south,10.0
2022/11/26,00:40,3.7,south,9.4
2022/11/26,00:50,3.7,south,9.7
2022/11/26,01:00,3.7,south-southwest,10.2
2022/11/26,01:10,3.6,south,10.4
2022/11/26,01:20,3.8,south,9.5
2022/11/26,01:30,3.8,south,9.1
2022/11/26,01:40,3.8,south,9.4
2022/11/26,01:50,3.7,south,8.2
2022/11/26,02:00,3.8,south,7.9
2022/11/26,02:10,3.8,south-southeast,7.1
2022/11/26,02:20,3.7,south-southeast,8.1
2022/11/26,02:30,3.8,south,8.6
2022/11/26,02:40,3.7,south,8.8
2022/11/26,02:50,3.8,south,7.5
2022/11/26,03:00,3.7,south-southwest,6.8
2022/11/26,03:10,3.5,south-southwest,7.7
2022/11/26,03:20,3.5,south-southwest,10.7
2022/11/26,03:30,3.6,south-southwest,9.3
2022/11/26,03:40,3.7,south-southwest,7.8
2022/11/26,03:50,3.7,south-southwest,6.8
2022/11/26,04:00,3.7,south,7.9
2022/11/26,04:10,3.7,south-southwest,9.0
2022/11/26,04:20,3.7,south-southwest,8.3
2022/11/26,04:30,3.7,south-southwest,7.3
2022/11/26,04:40,3.9,south-southwest,6.0
2022/11/26,04:50,3.6,south-southwest,6.4
2022/11/26,05:00,3.7,south-southwest,6.9
2022/11/26,05:10,3.8,south-southwest,6.9
2022/11/26,05:20,3.9,south,7.8
2022/11/26,05:30,3.6,south,7.9
2022/11/26,05:40,3.6,south,8.3
2022/11/26,05:50,3.9,south,8.0
2022/11/26,06:00,3.7,south,7.7
2022/11/26,06:10,3.7,south-southwest,6.7
2022/11/26,06:20,3.6,south-southwest,6.9
2022/11/26,06:30,3.9,south-southwest,7.9
2022/11/26,06:40,3.6,south-southwest,8.5
2022/11/26,06:50,3.7,south-southwest,9.0
2022/11/26,07:00,3.7,south-southwest,8.9
2022/11/26,07:10,3.9,south-southwest,8.6
2022/11/26,07:20,3.7,south-southwest,9.5
2022/11/26,07:30,3.6,south-southwest,11.4
2022/11/26,07:40,3.6,south-southwest,11.0
2022/11/26,07:50,3.7,south-southwest,10.0
2022/11/26,08:00,3.8,south-southwest,9.3
2022/11/26,08:10,3.7,south-southwest,9.4
2022/11/26,08:20,3.6,south,11.4
2022/11/26,08:30,3.7,south,9.4
2022/11/26,08:40,3.8,south,8.9
2022/11/26,08:50,3.7,south,8.0
2022/11/26,09:00,3.9,south,6.9
2022/11/26,09:10,3.6,south,7.6
2022/11/26,09:20,3.6,south,8.3
2022/11/26,09:30,3.7,south,5.3
2022/11/26,09:40,3.8,south,7.2
2022/11/26,09:50,3.7,south,5.5
2022/11/26,10:00,3.6,south,6.2
2022/11/26,10:10,3.6,south,5.3
2022/11/26,10:20,3.7,south,5.6
2022/11/26,10:30,3.8,south,5.5
2022/11/26,10:40,3.9,south,6.9
2022/11/26,10:50,3.8,south,6.0
2022/11/26,11:00,3.9,south-southeast,8.7
2022/11/26,11:10,3.7,south-southeast,9.8
2022/11/26,11:20,3.6,south-southeast,8.8
2022/11/26,11:30,3.8,south,8.3
2022/11/26,11:40,4.0,south,8.3
2022/11/26,11:50,3.7,south,9.9
2022/11/26,12:00,3.7,south-southwest,9.7
2022/11/26,12:10,3.6,south,12.4
2022/11/26,12:20,3.9,south,10.7
2022/11/26,12:30,3.7,south,7.6
2022/11/26,12:40,3.7,south,7.8
2022/11/26,12:50,3.9,south,6.6
2022/11/26,13:00,3.8,south,5.7
2022/11/26,13:10,3.7,south,5.6
2022/11/26,13:20,3.7,south,6.7
2022/11/26,13:30,3.8,south-southwest,7.7
2022/11/26,13:40,3.7,south-southwest,9.0
2022/11/26,13:50,3.7,south-southwest,7.9
2022/11/26,14:00,3.7,south-southwest,6.2
2022/11/26,14:10,3.8,south-southwest,7.8
2022/11/26,14:20,3.7,south-southwest,5.2
2022/11/26,14:30,3.7,south,6.7
2022/11/26,14:40,3.7,south,7.4
2022/11/26,14:50,3.7,south-southwest,5.3
2022/11/26,15:00,3.6,south-southwest,5.4
2022/11/26,15:10,3.6,south,5.4
2022/11/26,15:20,3.8,south,7.0
2022/11/26,15:30,3.8,south,7.0
2022/11/26,15:40,3.8,south,8.9
2022/11/26,15:50,3.7,south,9.2
2022/11/26,16:00,3.8,south-southwest,6.8
2022/11/26,16:10,3.8,south-southwest,7.1
2022/11/26,16:20,3.7,southwest,7.5
2022/11/26,16:30,3.7,south-southwest,7.8
2022/11/26,16:40,3.8,south-southwest,8.1
2022/11/26,16:50,3.7,south-southwest,8.7
2022/11/26,17:00,3.6,south-southwest,9.1
2022/11/26,17:10,3.7,south-southwest,8.6
2022/11/26,17:20,3.7,southwest,9.1
2022/11/26,17:30,3.8,south-southwest,8.8
2022/11/26,17:40,3.8,southwest,9.0
2022/11/26,17:50,3.9,southwest,6.6
2022/11/26,18:00,3.7,south-southwest,4.4
2022/11/26,18:10,3.8,south,5.1
2022/11/26,18:20,3.5,south-southwest,5.3
2022/11/26,18:30,3.8,southwest,4.4
2022/11/26,18:40,3.9,southwest,4.6
2022/11/26,18:50,3.7,southwest,4.3
2022/11/26,19:00,3.8,south-southwest,3.2
2022/11/26,19:10,3.8,southwest,2.3
2022/11/26,19:20,3.6,south-southwest,2.9
2022/11/26,19:30,3.7,west-southwest,2.3
2022/11/26,19:40,3.7,southwest,1.7
2022/11/26,19:50,3.6,west-southwest,5.5
2022/11/26,20:00,3.9,west,4.8
2022/11/26,20:10,3.7,west,3.2
2022/11/26,20:20,3.8,west,6.9
2022/11/26,20:30,3.7,west,9.3
2022/11/26,20:40,3.8,west,11.6
2022/11/26,20:50,3.6,west,11.6
2022/11/26,21:00,3.6,west,10.4
2022/11/26,21:10,3.7,west,11.0
2022/11/26,21:20,3.7,west,11.1
2022/11/26,21:30,3.7,west-northwest,9.5
2022/11/26,21:40,3.8,west-northwest,9.2
2022/11/26,21:50,3.7,west-northwest,9.7
2022/11/26,22:00,3.8,west-northwest,7.9
2022/11/26,22:10,3.6,west-northwest,8.7
2022/11/26,22:20,3.7,west-northwest,8.7
2022/11/26,22:30,3.6,west-northwest,10.9
2022/11/26,22:40,3.9,west,11.4
2022/11/26,22:50,3.7,west,8.9
2022/11/26,23:00,3.7,west,8.3
2022/11/26,23:10,3.8,west-southwest,6.1
2022/11/26,23:20,3.7,west,6.0
2022/11/26,23:30,3.8,west,6.3
2022/11/26,23:40,3.7,west,4.6
2022/11/26,23:50,3.7,northwest,7.4
